Regional Weather Roundup
Issued by NWS

Home | Current Version | Previous Version | Graphics & Text | Print | Product List | Glossary On
Versions: 1 2 3 4 5 6 7 8 9 10 11 12 13 14 15 16 17 18 19 20 21 22 23 24 25 26 27 28 29 30 31 32 33 34 35 36 37 38 39 40 41 42 43 44 45 46 47 48 49 50
225
ASUS45 KBOU 240807
RWRCO

WEATHER ROUNDUP FOR COLORADO
NATIONAL WEATHER SERVICE DENVER/BOULDER CO
100 AM MST TUE JAN 24 2017

NOTE: "FAIR" INDICATES FEW OR NO CLOUDS BELOW 12000 FEET WITH NO
SIGNIFICANT WEATHER AND/OR OBSTRUCTIONS TO VISIBILITY.

COZ001>005-013-030-031-240900-
...NORTHWEST COLORADO...

CITY           SKY/WX    TMP DP  RH WIND       PRES   REMARKS
CRAIG          CLOUDY    28  17  63 SW7       29.52F WCI  21
HAYDEN         CLOUDY    27  16  63 E3        29.52F
MEEKER         CLOUDY    28  19  69 NW3       29.53F
MOUNT WERNER   NOT AVBL
STEAMBOAT SPGS CLOUDY    23  17  80 CALM      29.52S
WALDEN           N/A     19  14  79 S3        29.52S
$$

COZ006>008-011-240900-
...WEST CENTRAL VALLEYS...

CITY           SKY/WX    TMP DP  RH WIND       PRES   REMARKS
GRAND JUNCTION MOCLDY    29  29 100 W5        29.57R WCI  24
MONTROSE       FAIR      31  22  69 E7        29.57F WCI  24
EAGLE          FAIR      20  18  92 E7        29.57F WCI  11
RIFLE          FAIR      26  23  88 CALM      29.56F
DELTA          FAIR      33  28  80 N6        29.57F WCI  27
NUCLA          CLOUDY    30  23  74 SE5       29.63S WCI  25
$$

COZ017>023-064>068-240900-
...SOUTHWEST COLORADO...

CITY           SKY/WX    TMP DP  RH WIND       PRES   REMARKS
DURANGO        FAIR      21  18  88 S6        29.59F WCI  13
CORTEZ         CLOUDY    25  24  96 CALM      29.62S
PAGOSA SPRINGS FOG       26  26 100 CALM      29.58F VSB 1
TELLURIDE      MOCLDY    19  17  90 S6        29.54F WCI  11
WOLF CREEK PAS CLOUDY    10   9  92 SW16G26   29.54F WCI  -7
$$

COZ009-010-012-014-032>034-037-058>063-240900-
...CENTRAL COLORADO...

CITY           SKY/WX    TMP DP  RH WIND       PRES   REMARKS
ASPEN          FAIR      15  14  95 CALM      29.51R
BUENA VISTA    MOCLDY    20  13  72 E6        29.55R WCI  12
COPPER MTN     CLOUDY    14   1  57 MISG      29.47F
BERTHOUD PASS  FAIR       5  -4  66 MISG      29.45F
COTTONWOOD PAS CLOUDY    21  14  73 NW5       29.53S WCI  15
GUNNISON       FAIR      18  15  88 NE3       29.56F
KREMMLING      FAIR      21  14  73 E12       29.53F WCI   9
LEADVILLE      FOG       13  11  92 CALM      29.49F VSB 3/4
MONARCH PASS   CLOUDY    10   5  79 NW6       29.58F WCI   1
SALIDA         MOCLDY    29  17  59 SW8       29.61F WCI  21
SUNLIGHT       CLOUDY    10   9  92 S10G16    29.53S WCI  -3
WILKERSON PASS CLOUDY   N/A N/A N/A SW6       29.53R
$$

COZ069>075-240900-
...SAN LUIS VALLEY/SANGRE DE CRISTO MOUNTAINS...

CITY           SKY/WX    TMP DP  RH WIND       PRES   REMARKS
ALAMOSA        CLOUDY    26  24  92 N6        29.54F WCI  19
LA VETA PASS   LGT SNOW  21  19  93 NE13G23   29.52F WCI   9
SAGUACHE       MOCLDY    25  18  74 NW8       29.54F WCI  16
$$

COZ035-036-038>040-240900-
...NORTHERN COLORADO FRONT RANGE...

CITY           SKY/WX    TMP DP  RH WIND       PRES   REMARKS
DENVER INTL AP MOCLDY    31  28  89 SW8       29.50F WCI  23
DMNS CITY PARK   N/A     32  29  91 MISG      29.51S
AURORA         MOCLDY    30  27  88 W6        29.51F WCI  24
FRONT RANGE AP CLOUDY    32  30  93 N6        29.50R WCI  26
ERIE MUNI ARPT FAIR      31  30  96 W7        29.51F WCI  24
BOULDER MUN AP FAIR      32  30  93 W6        29.51F WCI  26
CENTENNIAL     FAIR      31  26  82 W5        29.51S WCI  26
BROOMFIELD     FAIR      30  28  93 NW8       29.51R WCI  23
FORT COLLINS   FAIR      28  27  96 NW3       29.52F
LONGMONT       FAIR      32  29  90 SW5       29.54F WCI  27
$$

COZ041-046-047-076>085-087-088-240900-
...PIKES PEAK/PALMER DIVIDE AND SOUTHERN FOOTHILLS...

CITY           SKY/WX    TMP DP  RH WIND       PRES   REMARKS
COLO. SPRINGS  CLOUDY    39  16  39 NW9       29.49R
A. F. ACADEMY  CLOUDY    35  22  61 N14       29.49R WCI  25
SCHRIEVER AFB  CLOUDY    37  19  49 NW5       29.49R
ELLICOTT       FAIR     N/A N/A N/A NW5       29.48R
FALCON         CLOUDY    33  23  66 NW13      29.50S WCI  24
FORT CARSON    FAIR      38  23  55 SW5       29.48R
LIMON          FAIR      32  27  81 W12       29.45F WCI  23
MONUMENT HILL  CLOUDY    27  23  86 NW7       29.50F WCI  19
TRINIDAD       CLOUDY    38  31  76 W16       29.50S
$$

COZ042>045-048>051-090-091-240900-
...NORTHEAST COLORADO...

CITY           SKY/WX    TMP DP  RH WIND       PRES   REMARKS
GREELEY ARPT   FAIR      32  31  96 N8        29.50F WCI  25
AKRON          FAIR      31  25  78 NE6       29.46F WCI  25
BURLINGTON     MOCLDY    30  27  88 SW8       29.46S WCI  22
WRAY           NOT AVBL
STERLING       FAIR      34  30  86 N10       29.48F WCI  26
HOLYOKE        FAIR      34  32  93 NE9       29.49S WCI  26
FORT MORGAN    FAIR      32  26  77 N12       29.49F WCI  23
$$

COZ086-089-092>099-240900-
...SOUTHEAST COLORADO...

CITY           SKY/WX    TMP DP  RH WIND       PRES   REMARKS
PUEBLO         MOCLDY    43  26  51 SW10      29.47S
LA JUNTA       CLOUDY    38  31  76 SW10      29.46S
LAMAR          FAIR      30  25  81 W7        29.44F WCI  23
SPRINGFIELD      N/A     34  27  75 W8        29.45F WCI  27
$$




USA.gov is the U.S. government's official web portal to all federal, state and local government web resources and services.